User: anonymous   Login
Location: Centreville
(38.8333°N, 77.4295°W)
Time: 01:50:21
(UTC-04:00)
Language:

EO-79 - Orbit

View from above orbital plane
View from above orbital plane
View from above satellite
View from above satellite

Ground track
Ground track

The orbit data is extracted from the following two-line orbital elements,

1 40025U 14033R   19295.36762128  .00000238  00000-0  31232-4 0  9991
2 40025  97.9046 214.8351 0012806  12.6915 347.4622 14.89002402290024
Epoch (UTC): 22 October 2019 08:49:22
Eccentricity: 0.0012806
inclination: 97.9046°
perigee height: 592 km
apogee height: 610 km
right ascension of ascending node: 214.8351°
argument of perigee: 12.6915°
revolutions per day: 14.89002402
mean anomaly at epoch: 347.4622°
orbit number at epoch: 29002

The dashed part of the orbit path shows where the satellite is in the earth's shadow,  

DLR